Location: Ay?beleni
(36.6500°N, 30.3000°E)
Time: 03:49:22
(UTC+00:00)

ATLAS 3B R/B - Pass Details

Date: 16 October 2021
Orbit: 989 x 1206 km, 63.8° (Epoch: 25 November)

Event Time Altitude Azimuth Distance (km) Brightness Sun altitude
Rises 16:36:16 0° 241° (WSW) 3,699 6.6 -15.8°
Reaches altitude 10° 16:39:08 10° 251° (WSW) 2,767 6.0 -16.4°
Maximum altitude 16:44:50 32° 313° (NW) 1,690 4.2 -17.6°
Drops below altitude 10° 16:50:47 10° 15° (NNE) 2,881 4.8 -18.8°
Sets 16:53:50 0° 25° (NNE) 3,874 5.4 -19.4°
